Date,TemperatureHighF,TemperatureAvgF,TemperatureLowF,DewpointHighF,DewpointAvgF,DewpointLowF,HumidityHigh,HumidityAvg,HumidityLow,PressureMaxIn,PressureMinIn,WindSpeedMaxMPH,WindSpeedAvgMPH,GustSpeedMaxMPH,PrecipitationSumIn
2014-1-1,49,35,27,27,24,21,82,65,35,30.34,30.10,3,0,7,0.00
2014-1-2,42,35,29,37,29,15,92,80,52,30.08,29.61,12,1,18,0.00
2014-1-3,33,24,18,14,6,1,67,46,28,30.41,29.79,19,4,29,0.00
2014-1-4,40,27,15,18,13,8,80,56,35,30.45,30.22,3,0,7,0.00
2014-1-5,40,37,32,38,32,17,92,84,48,30.20,29.70,1,0,2,0.00
2014-1-6,40,28,7,38,14,-11,94,58,30,30.21,29.60,12,4,19,0.00
2014-1-7,28,14,4,6,-6,-12,64,41,21,30.48,30.21,6,0,9,0.00
2014-1-8,45,26,11,16,10,4,75,54,24,30.53,30.40,3,0,5,0.00
2014-1-9,50,35,23,20,15,6,78,49,18,30.52,30.39,2,0,4,0.00
2014-1-10,44,41,36,43,36,18,95,85,40,30.40,30.02,2,0,2,0.00
2014-1-11,50,46,42,49,44,32,97,93,56,30.02,29.51,5,0,8,0.00
2014-1-12,59,45,33,32,28,24,80,52,28,30.09,29.68,11,2,17,0.00
2014-1-13,50,40,28,40,32,24,87,75,57,30.07,29.86,1,0,2,0.00
2014-1-14,58,45,33,46,35,24,95,73,28,29.90,29.71,6,1,6,0.00
2014-1-15,51,36,28,34,27,19,87,72,47,29.91,29.80,14,1,14,0.00
2014-1-16,45,32,22,21,17,9,83,57,22,29.99,29.84,6,1,6,0.00
2014-1-17,52,35,23,24,19,14,80,55,27,29.93,29.73,8,1,16,0.00
2014-1-18,40,30,23,17,10,5,64,44,28,30.02,29.84,13,2,17,0.00
2014-1-19,50,35,22,24,18,14,77,52,28,29.92,29.85,13,1,20,0.00
2014-1-20,66,44,24,25,20,17,74,45,18,29.84,29.69,16,2,17,0.00
2014-1-21,50,36,26,28,22,10,77,59,40,29.81,29.50,14,3,32,0.00
2014-1-22,37,26,18,10,-1,-10,54,33,15,30.02,29.81,7,1,13,0.00
2014-1-23,36,25,16,8,2,-6,64,37,26,30.41,30.02,12,3,18,0.00
2014-1-24,32,18,8,-1,-9,-12,48,31,15,30.57,30.17,13,2,19,0.00
2014-1-25,39,27,12,22,8,-2,64,45,25,30.17,29.61,10,2,12,0.00
2014-1-26,53,39,24,22,12,2,61,36,15,29.87,29.71,10,2,12,0.00
2014-1-27,40,34,32,28,24,22,73,68,60,29.79,29.73,0,0,0,0.00